Voltar ao catálogo

IRIDIUM 33 DEB

AtivoPO
NORAD 34071·DEBRIS·🇺🇸 United States

Lançado Sep 14, 1997 de Baikonur Cosmodrome

Loading…

Próximas Passagens (próximas 24 horas)

TLE

AtualizadoSource: Space-Track

Época: Sep 14, 2026, 09:30 UTC

1 34071U 97051CE  26257.39628363  .00001318  00000-0  33110-3 0  9993
2 34071  86.3390 257.8708 0004894 267.5818  92.4826 14.50598956923293

Acompanhe IRIDIUM 33 DEB em tempo real com AllMySat

Download on the App Store